| time (UTC) | temp F | wind direction | speed MPH | gust MPH | rain 1hr in | rain 24hr in | rain mn in | humidity % | barometer mb |
| 20260902040029 | 84 | 131 | 0.0 | 0.0 | 0.00 | 0.00 | 0.00 | 85 | 1015.2 |
| 20260902034529 | 84 | 131 | 1.0 | 3.0 | 0.00 | 0.00 | 0.00 | 84 | 1015.1 |
| 20260902033030 | 84 | 154 | 1.0 | 3.0 | 0.00 | 0.00 | 0.00 | 84 | 1015.0 |
| 20260902031528 | 85 | 157 | 1.0 | 5.0 | 0.00 | 0.00 | 0.00 | 83 | 1014.8 |
| 20260902030027 | 86 | 154 | 1.0 | 7.0 | 0.00 | 0.00 | 0.00 | 82 | 1014.6 |
| 20260902024536 | 87 | 163 | 1.0 | 6.0 | 0.00 | 0.00 | 0.00 | 80 | 1014.2 |
| 20260902023028 | 88 | 138 | 2.0 | 7.0 | 0.00 | 0.00 | 0.00 | 78 | 1013.7 |
| 20260902021541 | 89 | 117 | 2.0 | 10.0 | 0.00 | 0.00 | 0.00 | 76 | 1013.7 |
| 20260902020027 | 89 | 100 | 4.0 | 8.0 | 0.00 | 0.00 | 0.00 | 74 | 1013.4 |
| 20260902014533 | 90 | 113 | 3.0 | 8.0 | 0.00 | 0.00 | 0.00 | 74 | 1013.2 |
| 20260902013025 | 90 | 107 | 3.0 | 8.0 | 0.00 | 0.00 | 0.00 | 73 | 1013.2 |
| 20260902011524 | 91 | 86 | 3.0 | 8.0 | 0.00 | 0.00 | 0.00 | 72 | 1012.9 |
| 20260902004523 | 92 | 86 | 4.0 | 12.0 | 0.00 | 0.00 | 0.00 | 70 | 1012.7 |
| 20260902003022 | 93 | 57 | 5.0 | 12.0 | 0.00 | 0.00 | 0.00 | 67 | 1012.9 |
| 20260902001521 | 93 | 111 | 4.0 | 9.0 | 0.00 | 0.00 | 0.00 | 66 | 1012.9 |
| 20260902000020 | 93 | 97 | 2.0 | 9.0 | 0.00 | 0.00 | 0.00 | 67 | 1013.1 |
| 20260901234520 | 94 | 112 | 3.0 | 10.0 | 0.00 | 0.00 | 0.00 | 66 | 1013.0 |
| 20260901233039 | 94 | 98 | 3.0 | 9.0 | 0.00 | 0.00 | 0.00 | 65 | 1012.9 |
| 20260901231518 | 95 | 126 | 3.0 | 13.0 | 0.00 | 0.00 | 0.00 | 64 | 1012.9 |
| 20260901230031 | 96 | 96 | 5.0 | 11.0 | 0.00 | 0.00 | 0.00 | 64 | 1012.5 |
| 20260901224517 | 96 | 94 | 0.0 | 13.0 | 0.00 | 0.00 | 0.00 | 65 | 1012.6 |
| 20260901223016 | 95 | 83 | 5.0 | 15.0 | 0.00 | 0.00 | 0.00 | 65 | 1012.7 |
| 20260901221516 | 95 | 90 | 6.0 | 17.0 | 0.00 | 0.00 | 0.00 | 66 | 1012.8 |
| 20260901220015 | 95 | 92 | 9.0 | 21.0 | 0.00 | 0.00 | 0.00 | 66 | 1012.8 |
| 20260901214529 | 99 | 20 | 3.0 | 9.0 | 0.00 | 0.00 | 0.00 | 59 | 1012.8 |
| 20260901213014 | 101 | 83 | 4.0 | 7.0 | 0.00 | 0.00 | 0.00 | 58 | 1012.7 |
| 20260901211512 | 99 | 309 | 3.0 | 7.0 | 0.00 | 0.00 | 0.00 | 60 | 1012.7 |
| 20260901210010 | 99 | 115 | 3.0 | 7.0 | 0.00 | 0.00 | 0.00 | 60 | 1013.0 |
| 20260901204507 | 98 | 250 | 4.0 | 10.0 | 0.00 | 0.00 | 0.00 | 61 | 1013.2 |
| 20260901203004 | 99 | 242 | 2.0 | 7.0 | 0.00 | 0.00 | 0.00 | 61 | 1013.4 |
| 20260901201605 | 98 | 235 | 1.0 | 8.0 | 0.00 | 0.00 | 0.00 | 61 | 1013.7 |
| 20260901200057 | 98 | 199 | 4.0 | 9.0 | 0.00 | 0.00 | 0.00 | 62 | 1014.0 |
| 20260901194603 | 98 | 234 | 3.0 | 7.0 | 0.00 | 0.00 | 0.00 | 62 | 1014.3 |
| 20260901193051 | 97 | 280 | 0.0 | 7.0 | 0.00 | 0.00 | 0.00 | 62 | 1014.5 |
| 20260901191603 | 97 | 158 | 2.0 | 9.0 | 0.00 | 0.00 | 0.00 | 63 | 1014.8 |
| 20260901190042 | 96 | 227 | 3.0 | 10.0 | 0.00 | 0.00 | 0.00 | 65 | 1015.0 |
| 20260901184538 | 95 | 211 | 0.0 | 0.0 | 0.00 | 0.00 | 0.00 | 66 | 1015.2 |
| 20260901183036 | 95 | 199 | 2.0 | 7.0 | 0.00 | 0.00 | 0.00 | 67 | 1015.5 |
| 20260901181530 | 95 | 102 | 0.0 | 12.0 | 0.00 | 0.00 | 0.00 | 67 | 1015.8 |
| 20260901180025 | 94 | 53 | 3.0 | 6.0 | 0.00 | 0.00 | 0.00 | 70 | 1016.0 |
| 20260901174622 | 94 | 69 | 2.0 | 9.0 | 0.00 | 0.00 | 0.00 | 70 | 1016.3 |
| 20260901173018 | 94 | 166 | 4.0 | 7.0 | 0.00 | 0.00 | 0.00 | 70 | 1016.5 |
| 20260901171516 | 93 | 214 | 5.0 | 11.0 | 0.00 | 0.00 | 0.00 | 71 | 1016.7 |
| 20260901170011 | 93 | 85 | 2.0 | 5.0 | 0.00 | 0.00 | 0.00 | 72 | 1016.9 |
| 20260901164509 | 91 | 211 | 2.0 | 9.0 | 0.00 | 0.00 | 0.00 | 74 | 1017.0 |
| 20260901163006 | 92 | 83 | 1.0 | 4.0 | 0.00 | 0.00 | 0.00 | 72 | 1017.3 |
| 20260901161600 | 91 | 150 | 3.0 | 6.0 | 0.00 | 0.00 | 0.00 | 72 | 1017.4 |
| 20260901154558 | 89 | 157 | 0.0 | 3.0 | 0.00 | 0.00 | 0.00 | 79 | 1017.3 |
| 20260901153052 | 88 | 162 | 0.0 | 3.0 | 0.00 | 0.00 | 0.00 | 82 | 1017.4 |
| 20260901151548 | 86 | 170 | 1.0 | 5.0 | 0.00 | 0.00 | 0.00 | 85 | 1017.4 |
| 20260901150043 | 85 | 243 | 1.0 | 5.0 | 0.00 | 0.00 | 0.00 | 87 | 1017.3 |
| 20260901144539 | 84 | 292 | 0.0 | 3.0 | 0.00 | 0.00 | 0.00 | 89 | 1017.4 |
| 20260901143039 | 84 | 310 | 2.0 | 5.0 | 0.00 | 0.00 | 0.00 | 91 | 1017.4 |
| 20260901141541 | 83 | 318 | 0.0 | 5.0 | 0.00 | 0.00 | 0.00 | 93 | 1017.4 |
| 20260901140034 | 83 | 348 | 1.0 | 4.0 | 0.00 | 0.00 | 0.00 | 94 | 1017.4 |
| 20260901134532 | 82 | 102 | 0.0 | 2.0 | 0.00 | 0.00 | 0.00 | 96 | 1017.3 |
| 20260901133031 | 81 | 103 | 0.0 | 3.0 | 0.00 | 0.00 | 0.00 | 97 | 1017.4 |
| 20260901131530 | 79 | 103 | 0.0 | 2.0 | 0.00 | 0.00 | 0.00 | 99 | 1017.2 |
| 20260901130029 | 78 | 103 | 1.0 | 3.0 | 0.00 | 0.00 | 0.00 | 100 | 1016.9 |
| 20260901124528 | 77 | 103 | 1.0 | 3.0 | 0.00 | 0.00 | 0.00 | 100 | 1016.9 |
| 20260901123035 | 77 | 110 | 2.0 | 3.0 | 0.00 | 0.00 | 0.00 | 99 | 1016.9 |
| 20260901121523 | 78 | 179 | 1.0 | 3.0 | 0.00 | 0.00 | 0.00 | 98 | 1016.6 |
| 20260901120020 | 79 | 179 | 0.0 | 2.0 | 0.00 | 0.00 | 0.00 | 98 | 1016.6 |
| 20260901114520 | 79 | 179 | 0.0 | 2.0 | 0.00 | 0.00 | 0.00 | 99 | 1016.4 |
| 20260901111519 | 79 | 178 | 0.0 | 2.0 | 0.00 | 0.00 | 0.00 | 99 | 1016.2 |
| 20260901110021 | 79 | 176 | 1.0 | 3.0 | 0.00 | 0.00 | 0.00 | 98 | 1016.3 |
| 20260901104526 | 79 | 173 | 1.0 | 3.0 | 0.00 | 0.00 | 0.00 | 98 | 1016.2 |
| 20260901103018 | 79 | 169 | 0.0 | 2.0 | 0.00 | 0.00 | 0.00 | 98 | 1016.2 |
| 20260901101516 | 79 | 169 | 0.0 | 0.0 | 0.00 | 0.00 | 0.00 | 97 | 1016.1 |
| 20260901100015 | 79 | 169 | 0.0 | 0.0 | 0.00 | 0.00 | 0.00 | 98 | 1016.3 |
| 20260901094515 | 79 | 169 | 0.0 | 0.0 | 0.00 | 0.00 | 0.00 | 97 | 1016.4 |
| 20260901093014 | 79 | 169 | 0.0 | 0.0 | 0.00 | 0.00 | 0.00 | 97 | 1016.3 |
| 20260901091517 | 79 | 169 | 0.0 | 0.0 | 0.00 | 0.00 | 0.00 | 97 | 1016.5 |
| 20260901090012 | 79 | 169 | 0.0 | 2.0 | 0.00 | 0.00 | 0.00 | 97 | 1016.6 |
| 20260901084512 | 79 | 169 | 0.0 | 0.0 | 0.00 | 0.00 | 0.00 | 96 | 1016.6 |
| 20260901083017 | 79 | 169 | 0.0 | 0.0 | 0.00 | 0.00 | 0.00 | 96 | 1016.5 |
| 20260901081510 | 80 | 169 | 0.0 | 2.0 | 0.00 | 0.00 | 0.00 | 95 | 1016.4 |
| 20260901080009 | 80 | 169 | 0.0 | 1.0 | 0.00 | 0.00 | 0.00 | 95 | 1016.5 |
| 20260901074508 | 80 | 169 | 0.0 | 3.0 | 0.00 | 0.00 | 0.00 | 94 | 1016.3 |
| 20260901073008 | 80 | 169 | 0.0 | 2.0 | 0.00 | 0.00 | 0.00 | 93 | 1016.4 |
| 20260901071504 | 81 | 169 | 0.0 | 1.0 | 0.00 | 0.00 | 0.00 | 93 | 1016.5 |
| 20260901070003 | 81 | 176 | 0.0 | 3.0 | 0.00 | 0.00 | 0.00 | 92 | 1016.4 |
| 20260901064504 | 81 | 165 | 0.0 | 2.0 | 0.00 | 0.00 | 0.00 | 90 | 1016.4 |
| 20260901063124 | 81 | 165 | 0.0 | 2.0 | 0.00 | 0.00 | 0.00 | 89 | 1016.5 |
| 20260901061556 | 82 | 165 | 0.0 | 2.0 | 0.00 | 0.00 | 0.00 | 88 | 1016.3 |
| 20260901060054 | 82 | 165 | 0.0 | 1.0 | 0.00 | 0.00 | 0.00 | 88 | 1016.3 |
| 20260901054556 | 82 | 162 | 0.0 | 2.0 | 0.00 | 0.00 | 0.00 | 87 | 1016.2 |
| 20260901053114 | 83 | 162 | 0.0 | 1.0 | 0.00 | 0.00 | 0.00 | 86 | 1016.2 |
| 20260901050047 | 84 | 164 | 0.0 | 5.0 | 0.00 | 0.00 | 0.00 | 83 | 1016.1 |
| 20260901044546 | 84 | 133 | 1.0 | 4.0 | 0.00 | 0.00 | 0.00 | 82 | 1016.0 |
| 20260901043045 | 85 | 161 | 0.0 | 3.0 | 0.00 | 0.00 | 0.00 | 81 | 1015.9 |
| 20260901041555 | 85 | 150 | 0.0 | 3.0 | 0.00 | 0.00 | 0.00 | 79 | 1015.8 |